Flag for Canada Weather past 2 weeks in Atikokan, Ontario, Canada

Now
70 °F

Passing clouds.


Feels Like: 70 °F
Forecast: 54 / 73 °F
Wind: No wind

Location: Crane Lake - Scotts Seaplane Base

Current Time: Jul 22, 2014 at 7:33:23 PM

Latest Report: Jul 22, 2014 at 6:54 PM


Visibility: 10 mi

Pressure: 30.12 "Hg

Humidity: 57%

Dew point: 54 °F

Location of AtikokanLocation

Historic Weather in Atikokan — Graph

°F

Atikokan temperature yesterday

Maximum temperature yesterday: 88 °F (at 2:14 PM)
Minimum temperature yesterday: 66 °F (at 5:14 AM)
Average temperature yesterday: 78 °F

Past Weeks' High & Low Weather Summary

 TemperatureHumidityPressure
High88 °F (Jul 21, 2:14 PM)100% (Jul 7, 6:35 PM)30.10 "Hg (Jul 7, 6:35 PM)
Low39 °F (Jul 16, 3:54 AM)32% (Jul 10, 4:35 PM)29.60 "Hg (Jul 8, 12:55 AM)
Average62 °F79%29.90 "Hg
* Reported Jul 7 11:15 AM — Jul 22 11:54 AM, Atikokan, Weather by CustomWeather, © 2014

Note: Actual official high and low records may vary slightly from our data, if they occured in-between our weather recording intervals... More about our weather records

Advertising

Atikokan weather history for previous 24 hours

 ConditionsComfort  
Time TempWeatherWind HumidityBarometerVisibility
11:54 AM
Jul 22
66 °FMostly cloudy.10 mph83%29.99 "Hg10 mi
11:34 AM66 °FOvercast.13 mph83%29.98 "Hg10 mi
11:14 AM66 °FBroken clouds.13 mph83%29.96 "Hg10 mi
10:54 AM66 °FBroken clouds.13 mph88%29.94 "Hg10 mi
10:34 AM66 °FMostly cloudy.13 mph88%29.93 "Hg10 mi
10:14 AM66 °FMostly cloudy.10 mph88%29.91 "Hg10 mi
9:54 AM64 °FMostly cloudy.10 mph94%29.90 "Hg10 mi
9:34 AM64 °FOvercast.7 mph94%29.89 "Hg10 mi
9:14 AM64 °FMostly cloudy.6 mph94%29.88 "Hg10 mi
8:54 AM64 °FMostly cloudy.3 mph94%29.88 "Hg10 mi
8:34 AM64 °FOvercast.9 mph94%29.87 "Hg10 mi
8:14 AM64 °FOvercast.9 mph94%29.85 "Hg10 mi
7:54 AM64 °FMild.8 mph94%29.83 "HgN/A
12:34 AM75 °FThunderstorms. Cloudy.6 mph94%29.70 "HgN/A
12:14 AM79 °FThunderstorms. Broken clouds.7 mph84%29.72 "Hg10 mi
11:54 PM
Jul 21
79 °FMostly cloudy.7 mph84%29.72 "Hg10 mi
11:34 PM77 °FMostly cloudy.5 mph89%29.72 "Hg10 mi
11:14 PM75 °FOvercast.No wind89%29.74 "Hg10 mi
10:54 PM73 °FPartly cloudy.No wind94%29.77 "Hg10 mi
10:34 PM73 °FClear.No wind94%29.77 "Hg10 mi
9:54 PM73 °FClear.No wind94%29.79 "Hg10 mi
9:34 PM73 °FClear.No wind94%29.80 "Hg10 mi
9:14 PM73 °FClear.No wind94%29.80 "Hg10 mi
8:54 PM75 °FClear.No wind89%29.80 "Hg10 mi
8:34 PM77 °FPassing clouds.No wind89%29.81 "Hg10 mi
8:14 PM79 °FPassing clouds.No wind84%29.82 "Hg10 mi
7:54 PM81 °FClear.No wind79%29.81 "Hg10 mi
7:34 PM84 °FClear.No wind70%29.82 "Hg10 mi
7:14 PM86 °FClear.No wind66%29.83 "Hg10 mi
Weather by CustomWeather, © 2014

See weather overviewHow to use our weather pages